Asteroid 2004 QD14
(Preview)
Asteroids 2015
0
436
The 200 - 450 metre wide asteroid 2004 QD14 will make a close pass (65.6 LD, 0.1687 AU) travelling at 6.37 km/second, to the Earth-Moon system on the 29th July 2015 @ 03:20 UT ±00:01. See more The Lunar Distance (LD), the distance between Earth and the Moon, equals 384,401 km, (or 0.00256 AU).
Asteroid 2015 OM
(Preview)
Asteroids 2015
0
344
The 200 - 450 metre wide asteroid 2015 OM will make a close pass (39.7 LD, 0.1020 AU) travelling at 27.37 km/second, to the Earth-Moon system on the 29th July 2015 @ 00:19 UT ±00:01. See more The Lunar Distance (LD), the distance between Earth and the Moon, equals 384,401 km, (or 0.00256 AU).
Asteroid 2015 OM35
(Preview)
Asteroids 2015
0
287
The 98 - 220 metre wide asteroid 2015 OM35 made a close pass (51.2 LD, 0.1316 AU) travelling at 7.65 km/second, to the Earth-Moon system on the 25th July 2015 @ 23:40 UT ±00:01. See more The Lunar Distance (LD), the distance between Earth and the Moon, equals 384,401 km, (or 0.00256 AU).
Tolbachik
(Preview)
Volcano
4
1853
Tolbachik is a volcanic complex on the Kamchatka Peninsula in the far east of Russia. It consists of two volcanoes, Plosky (flat) Tolbachik (3,085 m) and Ostry (sharp) Tolbachik (3,682 m), which as the names suggest are respectively a flat-topped shield volcano and a peaked stratovolcano. As Ostr...
Abell 78
(Preview)
Stars
1
358
Abell 78 (also PK 081-14.1, PN G 081.2-14.9 and 2MASS J21352938+3141453) is a magnitude +13.4 planetary nebula located in the constellation Cygnus. The planetary nebula was discovered by American astronomer George Abell using the 48-inch (1.2 m) Samuel Oschin telescope at Mount Palomar befor...
July 28th
(Preview)
July
9
3246
Meteorites http://astronomy.activeboard.com/t44132120/walters-meteorite/
Ireland Meteor 25.07.15
(Preview)
Meteors 2015
0
2312
Meteor/Fireballs Seen Over 5 States in US - Ireland Meteor w/ Fragmentation & Sonics Spoiler
Ancient Earthworks
(
1 2 3 4 5
)
(Preview)
General news
44
79327
The US Midwest’s immense earthworks, structures built by ancient Native American cultures, have been all but lost to plough and pavement. No longer. An ambitious effort by the University of Cincinnati has rebuilt the mounds of two millennia ago. These virtual earthworks will soon be set to travel...
NGC 6813
(Preview)
Stars/galaxy News
0
866
NGC 6813 (also IRAS 19383+2711 and SG 3.148) is a magnitude +15.0 emission nebula that surrounds a very close magnitude +14.0 double star located in the constellation Vulpecula. The nebula was discovered by German astronomer Albert Marth using a 121.92 cm (48 inch) reflector at Tigne' Point, Malt...
Asteroid (3167) Babcóck
(Preview)
Asteroids 2015
0
404
Asteroid (3167) Babcóck will occult the 6.4 mag star HD 149174 in the constellation Scorpius for observers along a path across SE Australia. Read more
Asteroid 2015 OH26
(Preview)
Asteroids 2015
0
393
The 37 - 82 metre wide asteroid 2015 OH26 made a close pass (41.2 LD, 0.1058 AU) travelling at 6.87 km/second, to the Earth-Moon system on the 19th July 2015 @ 23:45 UT ±00:17. See more The Lunar Distance (LD), the distance between Earth and the Moon, equals 384,401 km, (or 0.00256 AU).
Kuiper Belt Object 2012 VP113
(Preview)
Asteroids 2014
5
1388
Kuiper Belt Object 2012 VP113 is at Opposition (82.206 AU) on the 13th November 2014
Kepler-138b
(Preview)
Exoplanets
2
621
Measuring the mass of a Mars-size exoplanet Determining the size of an Earth-size exoplanet by the amount of starlight it blocks hundreds of light-years away once was the realm of science fiction. Measuring the mass of such a small planet based on its gravity was another level entirely, but astrono...
July 27th
(Preview)
July
8
3110
Meteorites http://astronomy.activeboard.com/t44112836/savtschenskoje-meteorite/
Asteroid 2011 TX8
(Preview)
Asteroids
1
1073
Orbital elements:
2011 TX8 PHA, Earth MOID = 0.0130 AU
Epoch 2011 Aug. 27.0 TT = JDT 2455800.5 MPC
M 233.00472 (2000.0) P Q
n 1.13694140 Peri. 313.17775 -0.94491439 -0.32365130
a 0.9091677 Node 208.04379 +0.32229152 -0.89392822
e 0.7083253 Incl. 5.96441 +0.05713999 -0.31006802
P 0.87 H 2...
«First < 1
301 302 303 304 305
2461 > Last» | Page
